GW0478 Weather Reports


time (UTC)temp
F
wind
direction
speed
knots
gust
knots
rain 1hr
in
rain 24hr
in
rain mn
in
humidity
%
barometer
mb
20260508004518 42 124 1.7 1.7 0.00 0.00 0.00 78 1006.8
20260508004015 42 165 0.9 2.6 0.00 0.00 0.00 80 1006.7
20260508003512 42 132 0.9 1.7 0.00 0.00 0.00 82 1006.5
20260508003009 42 122 0.9 1.7 0.00 0.00 0.00 81 1006.7
20260508002505 42 147 2.6 4.3 0.00 0.00 0.00 81 1006.7
20260508002003 42 122 2.6 2.6 0.00 0.00 0.00 80 1006.6
20260508001458 42 133 2.6 2.6 0.00 0.00 0.00 79 1006.5
20260508000955 42 120 2.6 4.3 0.00 0.00 0.00 76 1006.6
20260508000450 42 142 2.6 4.3 0.00 0.00 0.00 75 1006.7
20260507235948 42 160 3.5 5.2 0.00 0.00 0.00 75 1006.5
20260507235444 42 139 1.7 2.6 0.00 0.00 0.00 76 1006.8
20260507234942 42 119 2.6 4.3 0.00 0.00 0.00 75 1006.6
20260507234439 42 143 1.7 1.7 0.00 0.00 0.00 75 1006.6
20260507233935 42 161 3.5 5.2 0.00 0.00 0.00 73 1006.7
20260507233432 42 139 4.3 6.1 0.00 0.00 0.00 72 1006.6
20260507232930 42 120 3.5 4.3 0.00 0.00 0.00 74 1006.6
20260507232421 42 133 2.6 4.3 0.00 0.00 0.00 75 1006.7
20260507231918 42 122 2.6 4.3 0.00 0.00 0.00 75 1006.8
20260507231414 42 117 2.6 2.6 0.00 0.00 0.00 75 1006.9
20260507230911 42 113 1.7 1.7 0.00 0.00 0.00 72 1006.9
20260507230409 42 141 2.6 2.6 0.00 0.00 0.00 72 1006.8
20260507225908 42 134 4.3 6.1 0.00 0.00 0.00 71 1006.6
20260507225405 43 145 1.7 1.7 0.00 0.00 0.00 71 1006.8
20260507224901 43 145 1.7 1.7 0.00 0.00 0.00 71 1006.7
20260507224357 43 111 1.7 2.6 0.00 0.00 0.00 72 1006.9
20260507223854 43 132 4.3 5.2 0.00 0.00 0.00 70 1006.8
20260507223350 43 142 2.6 2.6 0.00 0.00 0.00 70 1007.2
20260507222847 43 120 4.3 6.1 0.00 0.00 0.00 71 1006.9
20260507222343 42 128 2.6 4.3 0.00 0.00 0.00 73 1006.8
20260507221841 43 160 4.3 5.2 0.00 0.00 0.00 71 1006.8
20260507221337 43 145 4.3 5.2 0.00 0.00 0.00 72 1006.8
20260507220833 43 177 2.6 2.6 0.00 0.00 0.00 71 1007.0
20260507220332 42 136 1.7 4.3 0.00 0.00 0.00 71 1007.1
20260507215828 42 114 2.6 2.6 0.00 0.00 0.00 73 1006.9
20260507215325 43 124 2.6 5.2 0.00 0.00 0.00 76 1006.9
20260507214822 43 118 4.3 6.1 0.00 0.00 0.00 77 1007.0
20260507214320 43 147 1.7 2.6 0.00 0.00 0.00 75 1006.8
20260507213814 42 138 3.5 5.2 0.00 0.00 0.00 76 1007.2
20260507213311 42 121 4.3 7.0 0.00 0.00 0.00 75 1006.8
20260507212808 42 125 3.5 5.2 0.00 0.00 0.00 73 1006.8
20260507212307 42 88 3.5 5.2 0.00 0.00 0.00 74 1006.9
20260507211801 42 138 3.5 5.2 0.00 0.00 0.00 72 1007.2
20260507211257 42 124 2.6 4.3 0.00 0.00 0.00 73 1007.1
20260507210754 42 152 2.6 2.6 0.00 0.00 0.00 75 1006.9
20260507210251 42 135 4.3 7.0 0.00 0.00 0.00 74 1007.1
20260507205748 42 123 3.5 5.2 0.00 0.00 0.00 74 1007.0
20260507205245 42 123 1.7 6.1 0.00 0.00 0.00 75 1007.1
20260507204741 42 128 5.2 7.8 0.00 0.00 0.00 71 1007.2
20260507204239 42 106 1.7 2.6 0.00 0.00 0.00 72 1007.0
20260507203736 42 155 4.3 5.2 0.00 0.00 0.00 72 1007.2
20260507203233 42 121 2.6 6.1 0.00 0.00 0.00 72 1007.1
20260507202730 42 145 2.6 5.2 0.00 0.00 0.00 70 1007.3
20260507202226 42 148 4.3 4.3 0.00 0.00 0.00 71 1007.0
20260507201721 42 133 4.3 5.2 0.00 0.00 0.00 71 1007.0
20260507201218 43 135 2.6 7.0 0.00 0.00 0.00 72 1007.3
20260507200714 43 94 5.2 6.1 0.00 0.00 0.00 72 1007.2
20260507200210 43 137 6.1 7.0 0.00 0.00 0.00 72 1007.3
20260507195707 43 114 2.6 5.2 0.00 0.00 0.00 72 1007.1
20260507195204 43 128 3.5 4.3 0.00 0.00 0.00 72 1007.2
20260507194701 42 109 2.6 4.3 0.00 0.00 0.00 75 1007.3
20260507194156 42 96 3.5 7.0 0.00 0.00 0.00 74 1007.4
20260507193653 43 60 3.5 6.1 0.00 0.00 0.00 74 1007.4
20260507193151 42 79 2.6 4.3 0.00 0.00 0.00 75 1007.2
20260507192646 42 108 6.1 8.7 0.00 0.00 0.00 73 1007.2
20260507192144 43 87 3.5 5.2 0.00 0.00 0.00 75 1007.3
20260507191639 42 141 3.5 6.1 0.00 0.00 0.00 76 1007.4
20260507191136 42 149 4.3 7.0 0.00 0.00 0.00 75 1007.5
20260507190633 42 147 7.8 8.7 0.00 0.00 0.00 75 1007.3
20260507190132 43 119 4.3 11.3 0.00 0.00 0.00 77 1007.3
20260507185630 43 105 6.1 7.8 0.00 0.00 0.00 75 1007.4
20260507185126 44 169 2.6 7.0 0.00 0.00 0.00 73 1007.2
20260507184624 44 92 4.3 7.8 0.00 0.00 0.00 71 1007.5
20260507184122 44 59 2.6 5.2 0.00 0.00 0.00 71 1007.4
20260507183618 44 146 4.3 7.0 0.00 0.00 0.00 71 1007.2
20260507183115 44 84 4.3 7.0 0.00 0.00 0.00 69 1007.5
20260507182612 46 129 0.0 6.1 0.00 0.00 0.00 64 1007.6
20260507182108 46 205 1.7 1.7 0.00 0.00 0.00 61 1007.6
20260507181605 46 268 2.6 2.6 0.00 0.00 0.00 63 1007.4
20260507181101 45 250 0.9 1.7 0.00 0.00 0.00 63 1007.5
20260507180558 45 328 4.3 5.2 0.00 0.00 0.00 62 1007.6
20260507180054 45 270 5.2 6.1 0.00 0.00 0.00 64 1007.7
20260507175550 45 349 4.3 7.8 0.00 0.00 0.00 64 1007.8
20260507175048 45 300 12.2 14.8 0.00 0.00 0.00 66 1007.7
20260507174545 45 290 3.5 7.8 0.00 0.00 0.00 65 1007.7
20260507174043 45 275 7.8 12.2 0.00 0.00 0.00 64 1007.7
20260507173540 45 312 4.3 8.7 0.00 0.00 0.00 61 1007.5
20260507173037 46 331 1.7 7.8 0.00 0.00 0.00 62 1007.8
20260507172532 45 243 7.0 7.0 0.00 0.00 0.00 60 1007.7
20260507172029 46 312 5.2 14.8 0.00 0.00 0.00 59 1007.8
20260507171525 46 288 3.5 7.0 0.00 0.00 0.00 59 1007.8
20260507171023 46 270 9.6 11.3 0.00 0.00 0.00 58 1007.8
20260507170519 46 258 6.1 8.7 0.00 0.00 0.00 59 1007.8
20260507170016 46 256 7.8 8.7 0.00 0.00 0.00 60 1008.1
20260507165512 46 244 2.6 4.3 0.00 0.00 0.00 59 1007.9
20260507165008 46 320 4.3 5.2 0.00 0.00 0.00 61 1007.9
20260507164505 46 333 4.3 7.0 0.00 0.00 0.00 60 1008.0
20260507164002 46 282 7.0 8.7 0.00 0.00 0.00 61 1008.4
20260507163459 46 283 5.2 8.7 0.00 0.00 0.00 60 1008.3
20260507162956 46 318 7.0 8.7 0.00 0.00 0.00 61 1008.2
20260507162451 45 259 4.3 7.0 0.00 0.00 0.00 61 1008.2
20260507161948 45 330 6.1 11.3 0.00 0.00 0.00 61 1008.2
20260507161444 45 332 4.3 6.1 0.00 0.00 0.00 60 1008.3
20260507160942 45 274 6.1 7.0 0.00 0.00 0.00 63 1008.3
20260507160437 45 257 7.8 9.6 0.00 0.00 0.00 59 1008.1
20260507155933 46 326 5.2 7.0 0.00 0.00 0.00 61 1008.3
20260507155430 46 337 7.0 7.8 0.00 0.00 0.00 60 1008.1
20260507154927 45 304 2.6 4.3 0.00 0.00 0.00 62 1008.3
20260507154423 45 300 5.2 7.0 0.00 0.00 0.00 62 1008.2
20260507153921 45 320 5.2 11.3 0.00 0.00 0.00 63 1008.3
20260507153417 45 331 3.5 7.0 0.00 0.00 0.00 63 1008.2
20260507152914 45 246 1.7 2.6 0.00 0.00 0.00 64 1008.2
20260507152410 45 200 5.2 6.1 0.00 0.00 0.00 62 1008.0
20260507151906 45 269 5.2 8.7 0.00 0.00 0.00 62 1008.2
20260507151402 46 261 6.1 7.8 0.00 0.00 0.00 62 1008.2
20260507150859 45 281 6.1 7.8 0.00 0.00 0.00 62 1008.2
20260507150356 45 321 7.0 8.7 0.00 0.00 0.00 63 1008.3
20260507145852 46 323 3.5 9.6 0.00 0.00 0.00 64 1008.3
20260507145348 45 281 6.1 11.3 0.00 0.00 0.00 63 1008.3
20260507144846 45 236 7.0 8.7 0.00 0.00 0.00 62 1008.4
20260507144343 44 301 6.1 17.4 0.00 0.00 0.00 63 1008.3
20260507143840 44 275 8.7 14.8 0.00 0.00 0.00 63 1008.2
20260507143337 44 290 5.2 8.7 0.00 0.00 0.00 64 1008.4
20260507142833 45 299 7.0 8.7 0.00 0.00 0.00 64 1008.4
20260507142330 44 272 2.6 7.0 0.00 0.00 0.00 64 1008.2
20260507141826 44 300 6.1 13.9 0.00 0.00 0.00 65 1008.2
20260507141323 44 248 6.1 19.1 0.00 0.00 0.00 65 1008.6
20260507140820 43 287 6.1 7.0 0.00 0.00 0.00 67 1008.4
20260507140316 43 244 6.1 7.8 0.00 0.00 0.00 67 1008.6
20260507135815 43 271 3.5 7.0 0.00 0.00 0.00 67 1008.6
20260507135311 43 245 5.2 7.0 0.00 0.00 0.00 68 1008.7
20260507134808 43 45 0.9 6.1 0.00 0.00 0.00 67 1008.5
20260507134304 43 243 2.6 2.6 0.00 0.00 0.00 68 1008.5
20260507133800 43 266 1.7 4.3 0.00 0.00 0.00 71 1008.7
20260507133256 43 295 6.1 8.7 0.00 0.00 0.00 67 1008.8
20260507132754 43 205 2.6 4.3 0.00 0.00 0.00 67 1008.8
20260507132251 42 350 4.3 5.2 0.00 0.00 0.00 69 1008.7
20260507131748 42 281 3.5 4.3 0.00 0.00 0.00 70 1008.8
20260507131245 42 273 4.3 7.8 0.00 0.00 0.00 68 1008.6
20260507130741 42 240 6.1 7.0 0.00 0.00 0.00 70 1008.6
20260507130239 42 318 4.3 5.2 0.00 0.00 0.00 69 1008.6
20260507125738 42 266 2.6 5.2 0.00 0.00 0.00 73 1008.4
20260507125235 41 275 3.5 5.2 0.00 0.00 0.00 72 1008.4
20260507124731 41 317 1.7 2.6 0.00 0.00 0.00 72 1008.6
20260507124228 41 245 1.7 2.6 0.00 0.00 0.00 71 1008.6
20260507123727 41 223 1.7 2.6 0.00 0.00 0.00 72 1008.4
20260507123224 42 199 0.9 4.3 0.00 0.00 0.00 73 1008.4
20260507122719 42 275 2.6 2.6 0.00 0.00 0.00 73 1008.4
20260507122215 41 236 1.7 2.6 0.00 0.00 0.00 75 1008.5
20260507121711 40 318 2.6 4.3 0.00 0.00 0.00 76 1008.4
20260507121207 40 241 1.7 2.6 0.00 0.00 0.00 75 1008.5
20260507120703 40 323 3.5 4.3 0.00 0.00 0.00 76 1008.5
20260507120200 39 246 2.6 2.6 0.00 0.00 0.00 77 1008.4
20260507115656 38 300 0.9 2.6 0.00 0.00 0.00 80 1008.3
20260507115152 38 266 2.6 2.6 0.00 0.00 0.00 79 1008.5
20260507114648 38 259 1.7 1.7 0.00 0.00 0.00 79 1008.4
20260507114146 37 277 2.6 2.6 0.00 0.00 0.00 80 1008.4
20260507113643 37 295 1.7 1.7 0.00 0.00 0.00 84 1008.4
20260507113140 36 147 0.9 0.9 0.00 0.00 0.00 86 1008.3
20260507112638 35 150 0.9 0.9 0.00 0.00 0.00 87 1008.4
20260507112134 34 160 0.9 0.9 0.00 0.00 0.00 88 1008.3
20260507111631 33 161 0.0 0.9 0.00 0.00 0.00 94 1008.3
20260507111128 33 149 0.9 1.7 0.00 0.00 0.00 98 1008.3
20260507110624 31 138 0.9 0.9 0.00 0.00 0.00 99 1008.1
20260507110121 30 110 0.0 0.9 0.00 0.00 0.00 99 1008.2
20260507105618 30 113 0.0 0.0 0.00 0.00 0.00 99 1008.4
20260507105114 30 113 0.0 0.0 0.00 0.00 0.00 99 1008.1
20260507104611 30 121 0.0 0.0 0.00 0.00 0.00 99 1008.0
20260507104108 30 124 0.9 0.9 0.00 0.00 0.00 99 1008.1
20260507103604 30 118 0.0 0.0 0.00 0.00 0.00 99 1008.1
20260507103101 30 125 0.0 0.9 0.00 0.00 0.00 99 1008.0
20260507102557 30 123 0.9 0.9 0.00 0.00 0.00 99 1008.1
20260507102053 30 120 0.9 0.9 0.00 0.00 0.00 99 1008.1
20260507101548 30 101 0.0 0.0 0.00 0.00 0.00 99 1007.9
20260507101045 30 93 0.9 0.9 0.00 0.00 0.00 98 1007.9
20260507100543 30 102 0.0 0.0 0.00 0.00 0.00 98 1008.1
20260507100041 31 102 0.0 0.9 0.00 0.00 0.00 98 1008.0
20260507095538 30 96 0.0 0.0 0.00 0.00 0.00 96 1008.0
20260507095035 30 94 0.0 0.9 0.00 0.00 0.00 96 1007.9
20260507094531 30 86 0.0 0.9 0.00 0.00 0.00 96 1008.0
20260507094028 30 78 0.0 0.0 0.00 0.00 0.00 96 1007.9
20260507093526 30 78 0.0 0.0 0.00 0.00 0.00 95 1008.0
20260507093024 30 78 0.0 0.0 0.00 0.00 0.00 95 1008.1
20260507092520 31 78 0.0 0.0 0.00 0.00 0.00 95 1007.9
20260507092017 31 78 0.0 0.0 0.00 0.00 0.00 94 1008.2
20260507091514 31 76 0.0 0.0 0.00 0.00 0.00 94 1008.2
20260507091010 31 68 0.0 0.0 0.00 0.00 0.00 94 1008.4
20260507090506 31 54 0.0 0.9 0.00 0.00 0.00 94 1008.1
20260507090003 31 13 0.0 0.0 0.00 0.00 0.00 94 1008.1
20260507085500 31 345 0.0 0.0 0.00 0.00 0.00 94 1008.3
20260507084956 31 336 0.0 0.0 0.00 0.00 0.00 94 1008.2
20260507084453 32 330 0.0 0.0 0.00 0.00 0.00 94 1008.3
20260507083950 32 320 0.9 0.9 0.00 0.00 0.00 96 1008.4
20260507083446 33 320 0.0 0.0 0.00 0.00 0.00 95 1008.3
20260507082943 33 319 0.0 0.9 0.00 0.00 0.00 93 1008.1
20260507082439 34 320 0.9 0.9 0.00 0.00 0.00 91 1008.2
20260507081936 35 320 0.9 0.9 0.00 0.00 0.00 88 1008.3
20260507081432 35 316 0.9 0.9 0.00 0.00 0.00 88 1008.3
20260507080929 35 301 0.9 1.7 0.00 0.00 0.00 87 1008.3
20260507080425 35 293 0.9 1.7 0.00 0.00 0.00 86 1008.4
20260507075920 35 297 1.7 1.7 0.00 0.00 0.00 86 1008.2
20260507075417 35 287 1.7 1.7 0.00 0.00 0.00 85 1008.4
20260507074914 35 267 1.7 1.7 0.00 0.00 0.00 87 1008.4
20260507074410 35 266 1.7 2.6 0.00 0.00 0.00 86 1008.6
20260507073908 35 259 0.9 1.7 0.00 0.00 0.00 87 1008.5
20260507073404 35 159 0.9 0.9 0.00 0.00 0.00 88 1008.3
20260507072902 35 146 0.9 0.9 0.00 0.00 0.00 88 1008.5
20260507072359 35 147 0.0 0.9 0.00 0.00 0.00 85 1008.4
20260507071856 35 150 0.0 0.9 0.00 0.00 0.00 85 1008.5
20260507071353 35 156 0.0 0.9 0.00 0.00 0.00 86 1008.5
20260507070849 35 164 0.9 0.9 0.00 0.00 0.00 86 1008.4
20260507070347 35 191 0.0 0.9 0.00 0.00 0.00 86 1008.8
20260507065844 36 238 0.9 1.7 0.00 0.00 0.00 86 1008.7
20260507065340 37 244 0.0 0.9 0.00 0.00 0.00 84 1008.6
20260507064837 37 262 0.9 1.7 0.00 0.00 0.00 83 1008.7
20260507064336 37 310 0.9 1.7 0.00 0.00 0.00 83 1008.6
20260507063833 37 273 0.9 1.7 0.00 0.00 0.00 82 1008.9
20260507063330 37 263 1.7 1.7 0.00 0.00 0.00 82 1009.0
20260507062826 37 247 1.7 1.7 0.00 0.00 0.00 82 1008.8
20260507062324 38 249 2.6 2.6 0.00 0.00 0.00 81 1009.1
20260507061822 38 301 1.7 2.6 0.00 0.00 0.00 81 1009.1
20260507061320 38 281 1.7 1.7 0.00 0.00 0.00 82 1009.0
20260507060818 38 256 0.9 1.7 0.00 0.00 0.00 82 1009.2
20260507060314 38 245 1.7 1.7 0.00 0.00 0.00 82 1009.1
20260507055811 38 217 0.9 4.3 0.00 0.00 0.00 81 1009.1
20260507055306 38 246 1.7 1.7 0.00 0.00 0.00 81 1009.2
20260507054803 38 246 1.7 1.7 0.00 0.00 0.00 80 1009.2
20260507054259 38 205 1.7 4.3 0.00 0.00 0.00 80 1009.0
20260507053756 39 218 1.7 4.3 0.00 0.00 0.00 78 1009.0
20260507053254 39 231 2.6 2.6 0.00 0.00 0.00 79 1009.3
20260507052753 38 211 0.9 1.7 0.00 0.00 0.00 79 1009.2
20260507052249 38 143 0.9 1.7 0.00 0.00 0.00 78 1009.1
20260507051747 38 111 0.0 0.9 0.00 0.00 0.00 78 1009.3
20260507051243 38 139 0.0 0.9 0.00 0.00 0.00 78 1009.2
20260507050740 38 149 0.9 0.9 0.00 0.00 0.00 77 1009.2
20260507050237 38 142 0.9 1.7 0.00 0.00 0.00 77 1009.1
20260507045734 38 163 1.7 1.7 0.00 0.00 0.00 77 1009.1
20260507045230 38 179 0.9 2.6 0.00 0.00 0.00 76 1009.3
20260507044728 38 197 1.7 1.7 0.00 0.00 0.00 76 1009.2
20260507044224 38 188 1.7 4.3 0.00 0.00 0.00 77 1009.3
20260507043720 38 176 0.9 1.7 0.00 0.00 0.00 79 1009.3
20260507043217 38 159 0.9 1.7 0.00 0.00 0.00 78 1009.2
20260507042714 38 156 0.9 0.9 0.00 0.00 0.00 78 1009.3
20260507042208 38 159 0.9 1.7 0.00 0.00 0.00 78 1009.4
20260507041706 38 138 0.9 0.9 0.00 0.00 0.00 78 1009.1
20260507041202 38 140 0.0 0.9 0.00 0.00 0.00 78 1009.4
20260507040700 38 164 0.9 1.7 0.00 0.00 0.00 77 1009.4
20260507040155 38 160 0.9 1.7 0.00 0.00 0.00 77 1009.3
20260507035652 38 146 1.7 1.7 0.00 0.00 0.00 77 1009.5
20260507035148 38 141 0.9 0.9 0.00 0.00 0.00 77 1009.3
20260507034645 38 166 0.9 2.6 0.00 0.00 0.00 76 1009.4
20260507034142 38 170 0.9 1.7 0.00 0.00 0.00 77 1009.7
20260507033641 38 154 0.9 1.7 0.00 0.00 0.00 77 1009.5
20260507033137 39 179 2.6 4.3 0.00 0.00 0.00 76 1009.5
20260507032635 39 198 3.5 7.0 0.00 0.00 0.00 76 1009.2
20260507032130 39 187 1.7 4.3 0.00 0.00 0.00 77 1009.4
20260507031628 39 192 1.7 6.1 0.00 0.00 0.00 77 1009.4
20260507031124 39 171 1.7 6.1 0.00 0.00 0.00 77 1009.4
20260507030621 39 196 1.7 4.3 0.00 0.00 0.00 77 1009.4
20260507030119 39 189 1.7 4.3 0.00 0.00 0.00 77 1009.5
20260507025616 39 183 1.7 5.2 0.00 0.00 0.00 77 1009.3
20260507025113 39 177 1.7 2.6 0.00 0.00 0.00 77 1009.3
20260507024611 39 187 1.7 2.6 0.00 0.00 0.00 77 1009.5
20260507024108 39 245 2.6 4.3 0.00 0.00 0.00 76 1009.5
20260507023603 39 196 0.9 1.7 0.00 0.00 0.00 77 1009.7
20260507023101 39 180 1.7 1.7 0.00 0.00 0.00 77 1009.4
20260507022557 39 192 0.9 1.7 0.00 0.00 0.00 77 1009.6
20260507022053 39 141 0.0 1.7 0.00 0.00 0.00 76 1009.3
20260507021549 39 204 2.6 2.6 0.00 0.00 0.00 77 1009.5
20260507021045 39 196 0.9 1.7 0.00 0.00 0.00 77 1009.4
20260507020544 39 158 0.9 0.9 0.00 0.00 0.00 77 1009.5
20260507020039 39 214 0.9 5.2 0.00 0.00 0.00 78 1009.5
20260507015538 39 219 1.7 5.2 0.00 0.00 0.00 77 1009.3
20260507015035 39 261 1.7 1.7 0.00 0.00 0.00 79 1009.2
20260507014532 39 200 1.7 2.6 0.00 0.00 0.00 77 1009.2
20260507014027 39 181 0.9 1.7 0.00 0.00 0.00 77 1009.2
20260507013524 39 193 0.9 2.6 0.00 0.00 0.00 77 1009.3
20260507013022 39 163 0.9 2.6 0.00 0.00 0.00 76 1009.0
20260507012519 39 162 0.9 1.7 0.00 0.00 0.00 78 1009.1
20260507012015 39 149 0.9 0.9 0.00 0.00 0.00 76 1009.1
20260507011512 39 150 0.9 1.7 0.00 0.00 0.00 76 1009.1
20260507011008 39 42 0.9 1.7 0.00 0.00 0.00 76 1009.1
20260507010502 40 30 1.7 1.7 0.00 0.00 0.00 77 1009.0
20260507010000 40 303 1.7 1.7 0.00 0.00 0.00 76 1009.1
20260507005457 40 32 0.9 1.7 0.00 0.00 0.00 78 1009.1
20260507004953 40 164 1.7 2.6 0.00 0.00 0.00 75 1009.0